Location: ?ern� Novina
(50.6762°N, 14.8696°E)
Time: 10:36:51
(UTC+00:00)

USA 305 - Pass Details

Date: 03 March 2021
Orbit: 567 x 574 km, 54.0° (Epoch: 13 April)

Event Time Altitude Azimuth Distance (km) Brightness Sun altitude
Rises 19:46:12 0° 290° (WNW) 2,781 7.6 -28.6°
Reaches altitude 10° 19:48:29 10° 292° (WNW) 1,880 6.5 -29.0°
Enters shadow 19:51:05 36° 300° (WNW) 918 4.4 -29.3°
